Regional Weather Roundup
Issued by NWS

Home | Current Version | Previous Version | Text Only | Print | Product List | Glossary Off
Versions: 1 2 3 4 5 6 7 8 9 10 11 12 13 14 15 16 17 18 19 20 21 22 23 24 25 26 27 28 29 30 31 32 33 34 35 36 37 38 39 40 41 42 43 44 45 46 47 48 49 50

000
ASUS43 KDMX 280601
RWRIA

WEATHER ROUNDUP FOR IOWA
NATIONAL WEATHER SERVICE DES MOINES IA
1200 AM CST TUE FEB 28 2017

NOTE: "FAIR" INDICATES FEW OR NO CLOUDS BELOW 12,000 FEET WITH NO
SIGNIFICANT WEATHER AND/OR OBSTRUCTIONS TO VISIBILITY.

* - THESE STATIONS ARE NOT NWS STATIONS...THUS NOT UNDER NWS
QUALITY CONTROL.  THEY ALSO DO NOT REPORT WEATHER SUCH
AS PRECIPITATION OR FOG.

IAZ001>003-012>014-020>022-031>034-043>046-280700-
   NORTHWEST IOWA

CITY           SKY/WX    TMP DP  RH WIND       PRES   REMARKS
CARROLL *      CLOUDY    39  36  87 SE8       29.73F WCI  34
CHEROKEE *     CLEAR     36  32  85 CALM      29.71F
DENISON *      CLOUDY    41  32  70 VRB7      29.68F
LE MARS *      PTCLDY    37  30  75 CALM      29.70F
SHELDON *      PTCLDY    36  36 100 SE9       29.68F WCI  29
SIOUX CITY     CLOUDY    35  28  75 E7        29.68F WCI  29
6HR MIN TEMP:  35; 6HR MAX TEMP:  43;

SPENCER        MOCLDY    39  32  76 SE13      29.71F WCI  31
6HR MIN TEMP:  36; 6HR MAX TEMP:  39;

STORM LAKE *   CLEAR     36  30  80 SE10      29.71F WCI  28
$$

IAZ055>058-069>071-079>083-090>094-280700-
   SOUTHWEST IOWA

CITY           SKY/WX    TMP DP  RH WIND       PRES   REMARKS
ATLANTIC *     CLOUDY    39  34  81 CALM      29.72F
AUDUBON *      CLOUDY    37  34  87 CALM      29.73F
CLARINDA *     CLOUDY    46  36  66 CALM      29.74F
COUNCIL BLFS * CLOUDY    43  34  70 SE9       29.68F
CRESTON *      CLOUDY    45  34  65 SE9       29.75F
HARLAN  *      CLOUDY    41  34  75 CALM      29.74F
LAMONI         CLOUDY    52  36  54 SE12      29.74F
6HR MIN TEMP:  51; 6HR MAX TEMP:  55;

RED OAK *      CLOUDY    45  36  70 S5        29.70F
SHENANDOAH *   CLOUDY    46  37  71 CALM      29.71F
$$

IAZ047>049-059>061-072>074-084-280700-
   CENTRAL IOWA

CITY           SKY/WX    TMP DP  RH WIND       PRES   REMARKS
AMES           CLOUDY    45  36  70 SE9       29.77F
6HR MIN TEMP:  45; 6HR MAX TEMP:  49; 6HR PCP: TRACE;

ANKENY *       CLOUDY    45  34  65 SE6       29.78F
BOONE *        CLOUDY    43  37  81 SE6G14    29.75S
CHARITON *     CLOUDY    48  34  57 SE9       29.77F
DES MOINES     CLOUDY    47  32  56 E6        29.77F
6HR MIN TEMP:  47; 6HR MAX TEMP:  54; 6HR PCP:  0.01;

GRINNELL*      CLOUDY    43  34  70 E8        29.80F
KNOXVILLE *    CLOUDY    48  34  57 SE6       29.76S
MARSHALLTOWN   CLOUDY    42  37  82 SE9       29.78F
6HR MIN TEMP:  41; 6HR MAX TEMP:  50; 6HR PCP: TRACE;

NEWTON *       CLOUDY    45  34  65 E10       29.77F
PELLA *        CLOUDY    45  34  66 SE8       29.79F
PERRY *        MOCLDY    42  33  72 E7        29.75F
$$

IAZ004>006-015-016-023>025-035-036-280700-
   NORTH CENTRAL IOWA

CITY           SKY/WX    TMP DP  RH WIND       PRES   REMARKS
ALGONA *       MOCLDY    39  34  81 SE13      29.75F WCI  32
CLARION *      CLOUDY    41  36  81 SE18      29.77F
ESTHERVILLE    CLEAR     35  32  88 SE10      29.73F WCI  27
6HR MIN TEMP:  34; 6HR MAX TEMP:  36;

FORT DODGE *   MOCLDY    45  30  57 SE14      29.76F
MASON CITY     CLOUDY    38  31  76 SE14      29.81F WCI  30
6HR MIN TEMP:  37; 6HR MAX TEMP:  40;

FOREST CITY *  MOCLDY    37  32  81 SE7       29.79F WCI  32
WEBSTER CITY * CLOUDY    41  34  75 E15       29.76S
IOWA FALLS *   CLOUDY    40  35  81 NE6       29.80R
$$

IAZ007>011-017>019-026>030-037>042-050>054-066-280700-
   NORTHEAST IOWA

CITY           SKY/WX    TMP DP  RH WIND       PRES   REMARKS
CEDAR RAPIDS   CLOUDY    44  39  82 SE9       29.81F
6HR MIN TEMP:  44; 6HR MAX TEMP:  49; 6HR PCP:  0.01;

CHARLES CITY * MIX PCPN  41  39  93 SE12      29.85S
CLINTON *      MOCLDY    46  38  73 E15       29.87F
DECORAH *      CLOUDY    41  36  81 SE8       29.87F
DUBUQUE        CLOUDY    43  37  79 E13       29.87F
6HR MIN TEMP:  42; 6HR MAX TEMP:  46; 6HR PCP:  0.03;

MONTICELLO *   CLOUDY    45  39  81 E15       29.84F
OELWEIN *      MOCLDY    41  37  87 E14       29.83F
WATERLOO       MOCLDY    43  36  76 E13       29.80F
6HR MIN TEMP:  42; 6HR MAX TEMP:  48; 6HR PCP: TRACE;

$$

IAZ064-065-067-068-078-280700-
   EAST CENTRAL IOWA

CITY           SKY/WX    TMP DP  RH WIND       PRES   REMARKS
DAVENPORT      RAIN      47  38  71 SE10      29.87F
6HR MIN TEMP:  45; 6HR MAX TEMP:  49; 6HR PCP:  0.01;

IOWA CITY      CLOUDY    49  38  65 E10       29.84F
6HR MIN TEMP:  49; 6HR MAX TEMP:  52; 6HR PCP:  0.02;

MUSCATINE *    CLOUDY    52  41  66 S12       29.84F
QUAD CITIES    MOCLDY    50  41  71 S13G22    29.85F
6HR MIN TEMP:  46; 6HR MAX TEMP:  51; 6HR PCP: TRACE;

$$

IAZ062-063-075>077-085>089-095>099-280700-
   SOUTHEAST IOWA

CITY           SKY/WX    TMP DP  RH WIND       PRES   REMARKS
BURLINGTON     CLOUDY    54  45  71 S13       29.84F
6HR MIN TEMP:  51; 6HR MAX TEMP:  54;

FAIRFIELD *    CLOUDY    50  36  57 S14       29.80F
FORT MADISON * MOCLDY    54  45  71 S9G16     29.85F
KEOKUK *       MOCLDY    54  45  71 S8G15     29.84R
CENTERVILLE *    N/A     48  36  61 SE7       29.80S
OTTUMWA        CLOUDY    52  35  52 S14       29.79F
6HR MIN TEMP:  49; 6HR MAX TEMP:  53;

WASHINGTON *   CLOUDY    48  39  71 SE8       29.83S
$$

ABBREVIATIONS USED IN REMARKS
   TC - TEMPERATURES IN CELSIUS
  WCI - WIND CHILL INDEX
   HX - HEAT INDEX
  VSB - VISIBILITY
$$





USA.gov is the U.S. government's official web portal to all federal, state and local government web resources and services.